This demonstration page uses our WeatherBlox Daily Observations layout. Learn more.

38.88101, -77.10428

Hourly Observations for January 8, 2017

Temp ( °F °C ) Dew Point ( °F °C ) Humidity (%) Winds ( mph kmh ) Pressure ( in mb ) Visibility ( mi km ) Precip ( " mm )
12:52 am 00:52 Mostly Clear 19 -7.2 3 -16.1 49 49 NW 15 24 30.35 1028 10 16.0934 0 0
1:52 am 01:52 Mostly Clear 18 -7.8 3 -16.1 52 52 NW 15 24 30.37 1028 10 16.0934 0 0
2:52 am 02:52 Mostly Clear 18 -7.8 2 -16.7 49 49 NNW 12 19 30.41 1030 10 16.0934 0 0
3:52 am 03:52 Clear 17 -8.3 0 -17.8 47 47 WNW 8 13 30.42 1030 10 16.0934 0 0
4:52 am 04:52 Clear 16 -8.9 0 -17.8 49 49 WNW 13 20 30.43 1030 10 16.0934 0 0
5:52 am 05:52 Clear 16 -8.9 0 -17.8 49 49 WNW 21 33 30.45 1031 10 16.0934 0 0
6:52 am 06:52 Clear 15 -9.4 0 -17.8 51 51 WNW 14 22 30.48 1032 10 16.0934 0 0
7:52 am 07:52 Sunny 15 -9.4 0 -17.8 51 51 VRB 6 9 30.5 1033 10 16.0934 0 0
8:52 am 08:52 Sunny 18 -7.8 1 -17.2 47 47 WNW 12 19 30.52 1033 10 16.0934 0 0
9:52 am 09:52 Sunny 20 -6.7 2 -16.7 45 45 WNW 20 31 30.53 1034 10 16.0934 0 0
10:52 am 10:52 Sunny 22 -5.6 1 -17.2 40 40 WNW 23 37 30.54 1034 10 16.0934 0 0
11:52 am 11:52 Sunny 23 -5 0 -17.8 36 36 NW 23 37 30.52 1034 10 16.0934 0 0
12:52 pm 12:52 Partly Cloudy 24 -4.4 0 -17.8 35 35 NW 22 35 30.51 1033 10 16.0934 0 0
1:52 pm 13:52 Partly Cloudy 25 -3.9 -1 -18.3 32 32 NW 16 26 30.52 1034 10 16.0934 0 0
2:52 pm 14:52 Partly Cloudy 24 -4.4 -2 -18.9 32 32 WNW 22 35 30.54 1034 10 16.0934 0 0
3:52 pm 15:52 Mostly Sunny 23 -5 -3 -19.4 32 32 NW 21 33 30.58 1036 10 16.0934 0 0
4:52 pm 16:52 Mostly Sunny 22 -5.6 -3 -19.4 33 33 NW 16 26 30.59 1036 10 16.0934 0 0
5:52 pm 17:52 Mostly Clear 21 -6.1 -2 -18.9 36 36 NW 9 15 30.62 1037 10 16.0934 0 0
6:52 pm 18:52 Mostly Clear 21 -6.1 -2 -18.9 36 36 NW 12 19 30.65 1038 10 16.0934 0 0
7:52 pm 19:52 Clear 21 -6.1 -2 -18.9 36 36 NW 10 17 30.69 1039 10 16.0934 0 0
8:52 pm 20:52 Clear 20 -6.7 -2 -18.9 38 38 WNW 8 13 30.71 1040 10 16.0934 0 0
9:52 pm 21:52 Clear 20 -6.7 -3 -19.4 36 36 NW 12 19 30.73 1041 10 16.0934 0 0
10:52 pm 22:52 Clear 19 -7.2 -2 -18.9 39 39 W 8 13 30.76 1042 10 16.0934 0 0
11:52 pm 23:52 Clear 18 -7.8 -1 -18.3 43 43 W 8 13 30.75 1041 10 16.0934 0 0

Powered by AerisWeather